Other Public Products
Issued by NWS Charleston, SC

Home | Current Version | Previous Version | Text Only | Print | Product List | Glossary On
Versions: 1 2 3 4 5 6 7 8 9 10 11 12 13 14 15 16 17 18 19 20 21 22 23 24 25 26 27 28 29 30 31 32 33 34 35 36 37 38 39 40 41 42 43 44 45 46 47 48 49 50
000
FPUS82 KCHS 302227
OPUCHS

TEST...KCHS/KSAV Gateway Observations...TEST
National Weather Service Charleston SC
600 PM EDT SAT MAY 30 2020

NOTE: "fair" indicates few or no clouds below 12,000 feet with no
significant weather and/or obstructions to visibility.

SCZ050-WAZ558-NCZ071-TXZ119-213-PAZ071-DCZ001-FLZ074-172-MI076-
NYZ176-178-MAZ016-IL014-TNZ027-NJZ106-GAZ044-MD014-302300-

...Gateway Observations for Charleston International...

CITY           SKY/WX    TMP DP  RH WIND       PRES   REMARKS
Chas Airport   PTSUNNY   79  70  74 S5        29.92S
Seattle        LGT RAIN  54  52  93 S7        29.82S FOG
Charlotte      MOSUNNY   86  61  42 W7        29.94S
Dallas DFW     MOSUNNY   87  58  37 E9        30.05F
Dallas Love    MOSUNNY   86  55  34 E8        30.06F
Philladelphia  MOSUNNY   81  47  30 NW9G18    29.89F
Wash National  MOSUNNY   82  50  32 NW9       29.92F
Baltimore      MOSUNNY   81  50  33 W8        29.90F
Miami          PTSUNNY   86  71  60 SE12      29.97S HX  91
Detroit        PTSUNNY   66  43  43 NW13      30.09S
Newark         MOSUNNY   83  45  26 W17       29.85F
Laguardia      PTSUNNY   81  45  28 NW13      29.84F
J F K          MOSUNNY   76  57  51 S16       29.86S
Boston Logan   MOSUNNY   79  50  36 W9        29.78S
Ft. Lauderdale MOSUNNY   85  72  65 SE12      29.96S HX  91
Chicago O`Hare MOSUNNY   68  49  50 E10       30.16S
Chicago Midway MOSUNNY   65  47  52 E13       30.17R
Houston Bush   PTSUNNY   86  67  52 NE9       30.00F
Houston Hobby  CLOUDY    87  65  47 E9        30.00F
Nashville      MOSUNNY   80  53  39 N12       30.09S
Atlanta        MOSUNNY   85  60  42 W12       30.00F
London Heathrw   N/A     63  43  48 E9        30.18S

$$

GAZ044-118-TXZ119-213-NCZ071-DCZ001-MDZ014-506-PAZ021-071-NJZ106-
NYZ176-178-MAZ106-OHZ011-021-055-MIZ076-KYZ091-ILZ014-INZ047-
MNZ060-ONZ431-302300-

...Gateway Observations for Savannah International...

CITY           SKY/WX    TMP DP  RH WIND       PRES   REMARKS
Savannah Arpt  PTSUNNY   88  72  58 SW8       29.93F HX  94
Atlanta        MOSUNNY   85  60  42 W12       30.00F
Charlotte      MOSUNNY   86  61  42 W7        29.94S
Dallas DFW     MOSUNNY   87  58  37 E9        30.05F
Houston Bush   PTSUNNY   86  67  52 NE9       30.00F
Wash National  MOSUNNY   82  50  32 NW9       29.92F
Wash Dulles    PTSUNNY   82  49  31 VRB3      29.92F
Baltimore      MOSUNNY   81  50  33 W8        29.90F
Philadelphia   MOSUNNY   81  47  30 NW9G18    29.89F
Newark         MOSUNNY   83  45  26 W17       29.85F
Laguardia      PTSUNNY   81  45  28 NW13      29.84F
J F K          MOSUNNY   76  57  51 S16       29.86S
Boston         MOSUNNY   79  50  36 W9        29.78S
Pittsburg      PTSUNNY   68  47  46 NW14      30.05S
Akron          MOSUNNY   67  45  45 N12       30.09S
Cleveland      MOSUNNY   67  43  41 NW8       30.12R
Cincinnati     PTSUNNY   73  47  39 N12       30.13R
Columbus       PTSUNNY   70  47  44 N7        30.09S
Detroit        PTSUNNY   66  43  43 NW13      30.09S
Chicago O`Hare MOSUNNY   68  49  50 E10       30.16S
Minneapolis    SUNNY     67  29  24 N9G16     30.25S
Indianapolis   PTSUNNY   72  48  42 N14G20    30.14S
Toronto Canada PTSUNNY   61  45  55 NW21      30.02R

$$




USA.gov is the U.S. government's official web portal to all federal, state and local government web resources and services.
  • National Weather Service
  • El Paso, TX Weather Forecast Office
  • 7955 Airport Rd
  • Santa Teresa, NM 88008
  • (575) 589-4088
  • Page Author: EPZ Webmaster
  • Web Master's E-mail: sr-epz.webmaster@noaa.gov
  • Page last modified: Mar 10th, 2020 21:02 UTC